EXS1385 EGBB-LDPL

Flight info

Callsign EXS1385
Flight time 1h 58m
Altitude 37000
Route COWLY Q70 BIG UL9 KONAN DCT KOK DCT SISGA DCT RITAX DCT KRH DCT UTABA DCT BEMKI DCT ELMEM DCT DIRAB DCT NAXAV DCT ROKIB DCT LAPAB DCT AKADO L615 ROTAR
Aircraft B738/M-SDE2E3FGHIRWXY/LB1

Departure

Time 2026-05-07 10:27
Airport Birmingham Airport (EGBB)

Arrival

Time 2026-05-07 12:26
Airport Pula Airport (LDPL)
Time Latitude Longitude Altitude Speed Heading
2026-05-07 09:47 52.45069 -1.73594 323 ft 0 kts 128°
2026-05-07 10:12 52.45078 -1.73612 322 ft 4 kts 128°
2026-05-07 10:12 52.45091 -1.73640 319 ft 4 kts 139°
2026-05-07 10:13 52.45113 -1.73658 319 ft 4 kts 186°
2026-05-07 10:13 52.45133 -1.73642 322 ft 3 kts 236°
2026-05-07 10:13 52.45122 -1.73668 320 ft 3 kts 236°
2026-05-07 10:13 52.45120 -1.73673 320 ft 0 kts 236°
2026-05-07 10:15 52.45118 -1.73678 321 ft 2 kts 236°
2026-05-07 10:16 52.45102 -1.73724 322 ft 6 kts 259°
2026-05-07 10:16 52.45118 -1.73787 321 ft 7 kts 308°
2026-05-07 10:16 52.45160 -1.73839 322 ft 9 kts 326°
2026-05-07 10:16 52.45215 -1.73902 322 ft 13 kts 325°
2026-05-07 10:17 52.45299 -1.74003 322 ft 16 kts 306°
2026-05-07 10:17 52.45350 -1.74168 322 ft 16 kts 297°
2026-05-07 10:17 52.45400 -1.74328 322 ft 15 kts 296°
2026-05-07 10:17 52.45447 -1.74481 321 ft 15 kts 296°
2026-05-07 10:18 52.45507 -1.74610 322 ft 14 kts 325°
2026-05-07 10:18 52.45590 -1.74701 319 ft 15 kts 326°
2026-05-07 10:18 52.45687 -1.74810 312 ft 18 kts 326°
2026-05-07 10:18 52.45800 -1.74935 308 ft 20 kts 326°
2026-05-07 10:19 52.45918 -1.75067 305 ft 20 kts 326°
2026-05-07 10:19 52.46033 -1.75194 305 ft 20 kts 326°
2026-05-07 10:19 52.46143 -1.75316 302 ft 19 kts 326°
2026-05-07 10:19 52.46208 -1.75389 301 ft 9 kts 322°
2026-05-07 10:20 52.46210 -1.75476 306 ft 5 kts 238°
2026-05-07 10:20 52.46206 -1.75488 305 ft 0 kts 237°
2026-05-07 10:25 52.46197 -1.75509 306 ft 6 kts 237°
2026-05-07 10:25 52.46165 -1.75589 309 ft 11 kts 236°
2026-05-07 10:25 52.46117 -1.75615 309 ft 7 kts 146°
2026-05-07 10:26 52.46113 -1.75610 310 ft 0 kts 146°
2026-05-07 10:26 52.46071 -1.75563 309 ft 32 kts 146°
2026-05-07 10:26 52.45697 -1.75146 322 ft 97 kts 146°
2026-05-07 10:26 52.44977 -1.74348 330 ft 150 kts 145°
2026-05-07 10:27 52.44065 -1.73334 862 ft 156 kts 146°
2026-05-07 10:27 52.43176 -1.72348 1681 ft 157 kts 146°
2026-05-07 10:27 52.42194 -1.71245 2011 ft 188 kts 145°
2026-05-07 10:27 52.41033 -1.70074 2498 ft 202 kts 158°
2026-05-07 10:28 52.39649 -1.69477 3157 ft 209 kts 166°
2026-05-07 10:28 52.38157 -1.68888 3517 ft 235 kts 163°
2026-05-07 10:28 52.36615 -1.67794 4039 ft 250 kts 152°
2026-05-07 10:28 52.35049 -1.66435 4766 ft 259 kts 149°
2026-05-07 10:29 52.33501 -1.64850 5507 ft 266 kts 146°
2026-05-07 10:29 52.31939 -1.63184 6312 ft 271 kts 146°
2026-05-07 10:29 52.30340 -1.61497 7061 ft 275 kts 147°
2026-05-07 10:30 52.27111 -1.58146 8838 ft 274 kts 148°
2026-05-07 10:30 52.25479 -1.56479 9612 ft 280 kts 150°
2026-05-07 10:30 52.23739 -1.55013 10349 ft 283 kts 155°
2026-05-07 10:30 52.21896 -1.53585 10618 ft 305 kts 155°
2026-05-07 10:31 52.19913 -1.52049 10957 ft 322 kts 155°
2026-05-07 10:31 52.17886 -1.50468 11526 ft 328 kts 155°
2026-05-07 10:31 52.15828 -1.48847 12363 ft 330 kts 155°
2026-05-07 10:31 52.13748 -1.47206 13065 ft 336 kts 155°
2026-05-07 10:32 52.11626 -1.45531 13775 ft 341 kts 155°
2026-05-07 10:32 52.09473 -1.43833 14442 ft 347 kts 155°
2026-05-07 10:32 52.07292 -1.42112 15151 ft 350 kts 155°
2026-05-07 10:32 52.05082 -1.40371 15911 ft 353 kts 155°
2026-05-07 10:33 52.02864 -1.38625 16646 ft 357 kts 155°
2026-05-07 10:33 52.00619 -1.36860 17376 ft 360 kts 155°
2026-05-07 10:33 51.98346 -1.35076 18079 ft 365 kts 155°
2026-05-07 10:33 51.96051 -1.33277 18732 ft 369 kts 155°
2026-05-07 10:34 51.93728 -1.31457 19360 ft 372 kts 155°
2026-05-07 10:34 51.91393 -1.29630 20022 ft 374 kts 155°
2026-05-07 10:34 51.89039 -1.27790 20646 ft 377 kts 155°
2026-05-07 10:34 51.86662 -1.25935 21249 ft 380 kts 155°
2026-05-07 10:35 51.84302 -1.24095 21843 ft 384 kts 155°
2026-05-07 10:35 51.81883 -1.22211 22442 ft 386 kts 155°
2026-05-07 10:35 51.79449 -1.20317 23056 ft 389 kts 155°
2026-05-07 10:35 51.76983 -1.18402 23538 ft 395 kts 155°
2026-05-07 10:36 51.74497 -1.16473 24002 ft 398 kts 155°
2026-05-07 10:36 51.71993 -1.14532 24509 ft 400 kts 155°
2026-05-07 10:36 51.69478 -1.12583 25025 ft 402 kts 155°
2026-05-07 10:36 51.66952 -1.10631 25461 ft 405 kts 155°
2026-05-07 10:37 51.64403 -1.08654 25892 ft 408 kts 153°
2026-05-07 10:37 51.62099 -1.05981 26326 ft 411 kts 134°
2026-05-07 10:37 51.60431 -1.02242 26790 ft 414 kts 116°
2026-05-07 10:37 51.59348 -0.98011 27285 ft 415 kts 111°
2026-05-07 10:38 51.58309 -0.93669 27683 ft 418 kts 111°
2026-05-07 10:38 51.57239 -0.89296 28038 ft 422 kts 112°
2026-05-07 10:38 51.56133 -0.84908 28359 ft 427 kts 112°
2026-05-07 10:38 51.54999 -0.80477 28657 ft 432 kts 113°
2026-05-07 10:39 51.53846 -0.75999 29082 ft 433 kts 113°
2026-05-07 10:39 51.52694 -0.71531 29523 ft 434 kts 112°
2026-05-07 10:39 51.51536 -0.67044 29917 ft 436 kts 112°
2026-05-07 10:39 51.50368 -0.62517 30254 ft 439 kts 113°
2026-05-07 10:40 51.49198 -0.57990 30542 ft 441 kts 113°
2026-05-07 10:40 51.48018 -0.53428 30819 ft 444 kts 113°
2026-05-07 10:40 51.46844 -0.48897 31101 ft 446 kts 113°
2026-05-07 10:40 51.45650 -0.44299 31390 ft 447 kts 113°
2026-05-07 10:41 51.44455 -0.39705 31695 ft 448 kts 113°
2026-05-07 10:41 51.43256 -0.35105 32082 ft 447 kts 113°
2026-05-07 10:41 51.42056 -0.30508 32502 ft 446 kts 113°
2026-05-07 10:41 51.40858 -0.25932 32898 ft 445 kts 113°
2026-05-07 10:42 51.39659 -0.21359 33233 ft 445 kts 113°
2026-05-07 10:42 51.38459 -0.16793 33559 ft 445 kts 113°
2026-05-07 10:42 51.37259 -0.12232 33931 ft 444 kts 113°
2026-05-07 10:42 51.36059 -0.07681 34278 ft 443 kts 114°
2026-05-07 10:43 51.34875 -0.03200 34520 ft 443 kts 114°
2026-05-07 10:43 51.33670 0.01358 34773 ft 445 kts 112°
2026-05-07 10:43 51.32055 0.11013 34856 ft 455 kts 101°
2026-05-07 10:44 51.31495 0.15991 35149 ft 453 kts 101°
2026-05-07 10:44 51.30931 0.20932 35483 ft 451 kts 101°
2026-05-07 10:44 51.30339 0.25847 35746 ft 451 kts 102°
2026-05-07 10:44 51.29725 0.30766 35952 ft 452 kts 102°
2026-05-07 10:45 51.29109 0.35700 36162 ft 452 kts 102°
2026-05-07 10:45 51.28510 0.40620 36416 ft 452 kts 102°
2026-05-07 10:45 51.27916 0.45551 36676 ft 451 kts 102°
2026-05-07 10:45 51.27372 0.50420 36902 ft 452 kts 99°
2026-05-07 10:46 51.26951 0.55402 37115 ft 453 kts 97°
2026-05-07 10:46 51.26596 0.60403 37367 ft 452 kts 97°
2026-05-07 10:46 51.26260 0.65396 37639 ft 452 kts 97°
2026-05-07 10:46 51.25919 0.70384 37894 ft 452 kts 97°
2026-05-07 10:47 51.25565 0.75375 38127 ft 452 kts 97°
2026-05-07 10:47 51.25199 0.80361 38356 ft 452 kts 97°
2026-05-07 10:47 51.24822 0.85340 38592 ft 452 kts 97°
2026-05-07 10:47 51.24438 0.90325 38800 ft 452 kts 97°
2026-05-07 10:48 51.24050 0.95301 38985 ft 452 kts 98°
2026-05-07 10:48 51.23659 1.00275 39066 ft 454 kts 98°
2026-05-07 10:48 51.22865 1.10295 39084 ft 456 kts 98°
2026-05-07 10:49 51.22065 1.20298 39084 ft 453 kts 98°
2026-05-07 10:49 51.21397 1.28580 39082 ft 451 kts 98°
2026-05-07 10:50 51.20457 1.40103 39081 ft 450 kts 98°
2026-05-07 10:50 51.19780 1.48316 39078 ft 449 kts 98°
2026-05-07 10:51 51.18982 1.57899 39080 ft 448 kts 98°
2026-05-07 10:51 51.18153 1.67756 39080 ft 448 kts 98°
2026-05-07 10:52 51.17315 1.77620 39081 ft 450 kts 98°
2026-05-07 10:52 51.16467 1.87501 39076 ft 451 kts 98°
2026-05-07 10:53 51.15606 1.97430 39074 ft 453 kts 98°
2026-05-07 10:53 51.14735 2.07380 39079 ft 454 kts 98°
2026-05-07 10:54 51.13853 2.17351 39078 ft 456 kts 99°
2026-05-07 10:54 51.12963 2.27311 39073 ft 457 kts 99°
2026-05-07 10:55 51.12058 2.37344 39063 ft 458 kts 99°
2026-05-07 10:55 51.11143 2.47390 39065 ft 459 kts 99°
2026-05-07 10:56 51.10220 2.57447 39062 ft 459 kts 99°
2026-05-07 10:56 51.08808 2.67307 39063 ft 457 kts 112°
2026-05-07 10:57 51.05971 2.76236 39070 ft 455 kts 119°
2026-05-07 10:57 51.02948 2.85078 39067 ft 455 kts 119°
2026-05-07 10:58 50.99956 2.93925 39071 ft 454 kts 119°
2026-05-07 10:58 50.96993 3.02759 39066 ft 453 kts 119°
2026-05-07 10:59 50.94038 3.11570 39064 ft 452 kts 119°
2026-05-07 10:59 50.91076 3.20371 39057 ft 451 kts 119°
2026-05-07 11:00 50.88114 3.29137 39051 ft 451 kts 119°
2026-05-07 11:00 50.85150 3.37876 39066 ft 450 kts 119°
2026-05-07 11:01 50.82179 3.46605 39058 ft 450 kts 119°
2026-05-07 11:01 50.79217 3.55279 39058 ft 450 kts 119°
2026-05-07 11:02 50.76232 3.63989 39067 ft 451 kts 119°
2026-05-07 11:02 50.73235 3.72704 39065 ft 451 kts 120°
2026-05-07 11:03 50.70228 3.81421 39065 ft 452 kts 120°
2026-05-07 11:03 50.67237 3.90061 39068 ft 452 kts 120°
2026-05-07 11:04 50.64214 3.98770 39077 ft 454 kts 120°
2026-05-07 11:04 50.61195 4.07540 39071 ft 456 kts 118°
2026-05-07 11:05 50.58452 4.16555 39057 ft 457 kts 116°
2026-05-07 11:05 50.55794 4.25632 39065 ft 456 kts 116°
2026-05-07 11:06 50.53115 4.34663 39073 ft 455 kts 116°
2026-05-07 11:06 50.50426 4.43605 39077 ft 455 kts 116°
2026-05-07 11:07 50.47708 4.52574 39077 ft 454 kts 116°
2026-05-07 11:07 50.44988 4.61517 39081 ft 454 kts 116°
2026-05-07 11:08 50.42263 4.70446 39055 ft 453 kts 117°
2026-05-07 11:08 50.39588 4.79181 39062 ft 453 kts 117°
2026-05-07 11:09 50.36866 4.88037 39057 ft 452 kts 117°
2026-05-07 11:09 50.34129 4.96911 39059 ft 453 kts 117°
2026-05-07 11:10 50.31380 5.05793 39061 ft 453 kts 117°
2026-05-07 11:10 50.28620 5.14677 39046 ft 454 kts 117°
2026-05-07 11:11 50.25854 5.23548 39056 ft 454 kts 117°
2026-05-07 11:11 50.23080 5.32414 39056 ft 455 kts 117°
2026-05-07 11:12 50.20293 5.41289 39055 ft 455 kts 117°
2026-05-07 11:12 50.17492 5.50178 39053 ft 456 kts 117°
2026-05-07 11:13 50.14698 5.59014 39050 ft 457 kts 117°
2026-05-07 11:13 50.11880 5.67893 39044 ft 457 kts 117°
2026-05-07 11:14 50.09050 5.76783 39046 ft 458 kts 117°
2026-05-07 11:14 50.06104 5.85571 39037 ft 458 kts 121°
2026-05-07 11:15 50.02893 5.94145 39028 ft 458 kts 122°
2026-05-07 11:15 49.99654 6.02660 39033 ft 458 kts 122°
2026-05-07 11:16 49.96434 6.11193 39043 ft 458 kts 122°
2026-05-07 11:16 49.93211 6.19765 39022 ft 459 kts 122°
2026-05-07 11:17 49.90014 6.28261 39034 ft 458 kts 122°
2026-05-07 11:17 49.86788 6.36804 39021 ft 458 kts 122°
2026-05-07 11:18 49.83560 6.45322 39023 ft 458 kts 122°
2026-05-07 11:18 49.80331 6.53814 39020 ft 457 kts 122°
2026-05-07 11:19 49.77119 6.62232 39011 ft 457 kts 122°
2026-05-07 11:19 49.73883 6.70687 39008 ft 456 kts 122°
2026-05-07 11:20 49.70647 6.79114 39003 ft 456 kts 122°
2026-05-07 11:20 49.67401 6.87540 39010 ft 456 kts 122°
2026-05-07 11:21 49.64213 6.95790 39012 ft 456 kts 122°
2026-05-07 11:21 49.60964 7.04172 39029 ft 456 kts 122°
2026-05-07 11:22 49.57700 7.12563 39024 ft 456 kts 122°
2026-05-07 11:22 49.54428 7.20949 39026 ft 456 kts 123°
2026-05-07 11:23 49.51216 7.29157 39013 ft 457 kts 123°
2026-05-07 11:23 49.47929 7.37528 39023 ft 457 kts 123°
2026-05-07 11:24 49.44698 7.45732 39035 ft 457 kts 123°
2026-05-07 11:24 49.41400 7.54080 39026 ft 457 kts 123°
2026-05-07 11:25 49.38150 7.62280 39030 ft 458 kts 123°
2026-05-07 11:25 49.34834 7.70618 39018 ft 458 kts 123°
2026-05-07 11:26 49.31609 7.78707 39029 ft 458 kts 123°
2026-05-07 11:26 49.28283 7.87021 39033 ft 458 kts 123°
2026-05-07 11:27 49.25081 7.95000 39013 ft 458 kts 123°
2026-05-07 11:27 49.21735 8.03311 39021 ft 458 kts 124°
2026-05-07 11:28 49.18383 8.11614 39022 ft 458 kts 124°
2026-05-07 11:28 49.15023 8.19911 39026 ft 458 kts 124°
2026-05-07 11:29 49.11661 8.28186 39023 ft 458 kts 124°
2026-05-07 11:29 49.08311 8.36406 39025 ft 458 kts 124°
2026-05-07 11:30 49.04936 8.44664 39024 ft 458 kts 124°
2026-05-07 11:30 49.01557 8.52908 39024 ft 458 kts 124°
2026-05-07 11:31 48.97663 8.60512 39019 ft 453 kts 140°
2026-05-07 11:31 48.92800 8.66464 39022 ft 451 kts 144°
2026-05-07 11:32 48.85348 8.75267 39023 ft 452 kts 144°
2026-05-07 11:33 48.80406 8.81176 39018 ft 452 kts 144°
2026-05-07 11:33 48.75459 8.87110 39022 ft 452 kts 144°
2026-05-07 11:34 48.70543 8.92994 39016 ft 453 kts 144°
2026-05-07 11:34 48.65602 8.98893 39020 ft 453 kts 144°
2026-05-07 11:35 48.60635 9.04804 39019 ft 453 kts 144°
2026-05-07 11:35 48.55700 9.10662 39021 ft 454 kts 144°
2026-05-07 11:36 48.50732 9.16546 39016 ft 454 kts 144°
2026-05-07 11:36 48.45765 9.22412 39011 ft 454 kts 144°
2026-05-07 11:37 48.40787 9.28276 39013 ft 453 kts 144°
2026-05-07 11:37 48.35824 9.34109 39019 ft 453 kts 145°
2026-05-07 11:38 48.30938 9.39839 39020 ft 453 kts 145°
2026-05-07 11:38 48.26909 9.44552 39020 ft 453 kts 145°
2026-05-07 11:39 48.21185 9.51415 39019 ft 453 kts 143°
2026-05-07 11:39 48.17133 9.56436 39025 ft 453 kts 143°
2026-05-07 11:40 48.12269 9.62452 39016 ft 453 kts 143°
2026-05-07 11:40 48.07393 9.68439 39020 ft 453 kts 143°
2026-05-07 11:41 48.02512 9.74402 39022 ft 453 kts 143°
2026-05-07 11:41 47.97624 9.80357 39013 ft 453 kts 144°
2026-05-07 11:42 47.92737 9.86295 39022 ft 453 kts 144°
2026-05-07 11:42 47.87871 9.92194 39030 ft 453 kts 144°
2026-05-07 11:43 47.82973 9.98117 39025 ft 454 kts 144°
2026-05-07 11:43 47.78066 10.04038 39018 ft 453 kts 144°
2026-05-07 11:44 47.73169 10.09930 39031 ft 453 kts 144°
2026-05-07 11:44 47.68290 10.15786 39025 ft 453 kts 144°
2026-05-07 11:45 47.63379 10.21668 39037 ft 454 kts 144°
2026-05-07 11:45 47.58457 10.27549 39020 ft 454 kts 144°
2026-05-07 11:46 47.53441 10.33216 39010 ft 452 kts 150°
2026-05-07 11:46 47.48168 10.38273 39013 ft 452 kts 151°
2026-05-07 11:47 47.42879 10.43290 39012 ft 450 kts 150°
2026-05-07 11:47 47.37631 10.48357 39005 ft 450 kts 150°
2026-05-07 11:48 47.32424 10.53405 39005 ft 450 kts 150°
2026-05-07 11:48 47.27189 10.58484 38999 ft 451 kts 149°
2026-05-07 11:49 47.22065 10.63832 38979 ft 452 kts 148°
2026-05-07 11:49 47.16969 10.69254 38983 ft 453 kts 148°
2026-05-07 11:50 47.11848 10.74642 38990 ft 453 kts 148°
2026-05-07 11:50 47.06714 10.79998 38965 ft 453 kts 149°
2026-05-07 11:51 47.01559 10.85355 38967 ft 452 kts 149°
2026-05-07 11:51 46.96455 10.90650 39009 ft 453 kts 149°
2026-05-07 11:52 46.91300 10.95985 39002 ft 454 kts 149°
2026-05-07 11:52 46.86135 11.01320 38995 ft 455 kts 149°
2026-05-07 11:53 46.80937 11.06608 38984 ft 454 kts 153°
2026-05-07 11:53 46.75396 11.10896 39005 ft 450 kts 158°
2026-05-07 11:54 46.69786 11.14924 39004 ft 449 kts 158°
2026-05-07 11:54 46.64238 11.18988 39014 ft 448 kts 158°
2026-05-07 11:54 46.61456 11.21048 38885 ft 451 kts 158°
2026-05-07 11:55 46.58637 11.23138 38346 ft 455 kts 158°
2026-05-07 11:55 46.55826 11.25226 37801 ft 452 kts 158°
2026-05-07 11:55 46.53039 11.27295 37438 ft 446 kts 158°
2026-05-07 11:55 46.50284 11.29335 37001 ft 443 kts 158°
2026-05-07 11:56 46.47572 11.31338 36603 ft 439 kts 158°
2026-05-07 11:56 46.44824 11.33349 36197 ft 434 kts 159°
2026-05-07 11:56 46.42161 11.35248 35824 ft 430 kts 159°
2026-05-07 11:56 46.39474 11.37137 35454 ft 427 kts 160°
2026-05-07 11:57 46.36806 11.39006 35068 ft 425 kts 160°
2026-05-07 11:57 46.34151 11.40866 34682 ft 422 kts 160°
2026-05-07 11:57 46.31517 11.42714 34298 ft 419 kts 160°
2026-05-07 11:57 46.28902 11.44550 33865 ft 417 kts 160°
2026-05-07 11:58 46.26295 11.46381 33440 ft 414 kts 160°
2026-05-07 11:58 46.23710 11.48196 33027 ft 411 kts 160°
2026-05-07 11:58 46.21148 11.49993 32648 ft 407 kts 160°
2026-05-07 11:58 46.18610 11.51772 32265 ft 404 kts 160°
2026-05-07 11:59 46.16094 11.53534 31888 ft 400 kts 160°
2026-05-07 11:59 46.13593 11.55283 31530 ft 398 kts 160°
2026-05-07 11:59 46.11147 11.56990 31162 ft 396 kts 160°
2026-05-07 11:59 46.08675 11.58715 30793 ft 393 kts 160°
2026-05-07 12:00 46.06217 11.60429 30436 ft 391 kts 160°
2026-05-07 12:00 46.03776 11.62129 30061 ft 388 kts 160°
2026-05-07 12:00 46.01346 11.63820 29640 ft 385 kts 160°
2026-05-07 12:00 45.98949 11.65487 29227 ft 381 kts 159°
2026-05-07 12:01 45.96601 11.67119 28842 ft 378 kts 160°
2026-05-07 12:01 45.94234 11.68761 28473 ft 374 kts 160°
2026-05-07 12:01 45.91905 11.70376 28080 ft 371 kts 160°
2026-05-07 12:01 45.89592 11.71978 27700 ft 368 kts 160°
2026-05-07 12:02 45.87293 11.73574 27335 ft 366 kts 158°
2026-05-07 12:02 45.85133 11.75572 26903 ft 373 kts 145°
2026-05-07 12:02 45.83248 11.78156 26498 ft 376 kts 139°
2026-05-07 12:02 45.81427 11.80835 26127 ft 374 kts 139°
2026-05-07 12:03 45.79621 11.83509 25792 ft 372 kts 139°
2026-05-07 12:03 45.77825 11.86158 25441 ft 369 kts 139°
2026-05-07 12:03 45.76043 11.88774 25168 ft 364 kts 140°
2026-05-07 12:03 45.74276 11.91350 24839 ft 361 kts 140°
2026-05-07 12:04 45.72530 11.93885 24400 ft 363 kts 140°
2026-05-07 12:04 45.70749 11.96459 23998 ft 363 kts 140°
2026-05-07 12:04 45.68981 11.99011 23658 ft 360 kts 140°
2026-05-07 12:04 45.67222 12.01550 23331 ft 357 kts 140°
2026-05-07 12:05 45.65474 12.04069 22958 ft 355 kts 140°
2026-05-07 12:05 45.63741 12.06563 22581 ft 353 kts 140°
2026-05-07 12:05 45.62007 12.09056 22209 ft 351 kts 140°
2026-05-07 12:05 45.60290 12.11521 21848 ft 349 kts 139°
2026-05-07 12:06 45.58580 12.13975 21491 ft 347 kts 139°
2026-05-07 12:06 45.56881 12.16412 21140 ft 345 kts 139°
2026-05-07 12:06 45.55195 12.18828 20826 ft 342 kts 141°
2026-05-07 12:06 45.53527 12.21217 20553 ft 338 kts 141°
2026-05-07 12:07 45.51895 12.23550 20203 ft 336 kts 141°
2026-05-07 12:07 45.50240 12.25913 19825 ft 336 kts 141°
2026-05-07 12:07 45.48589 12.28267 19446 ft 336 kts 140°
2026-05-07 12:07 45.46943 12.30615 19117 ft 335 kts 140°
2026-05-07 12:08 45.45296 12.32962 18811 ft 333 kts 140°
2026-05-07 12:08 45.43664 12.35286 18502 ft 331 kts 140°
2026-05-07 12:08 45.42039 12.37598 18190 ft 330 kts 140°
2026-05-07 12:08 45.40423 12.39896 17834 ft 328 kts 140°
2026-05-07 12:09 45.38809 12.42189 17503 ft 326 kts 140°
2026-05-07 12:09 45.37212 12.44457 17178 ft 324 kts 140°
2026-05-07 12:09 45.35620 12.46713 16845 ft 322 kts 140°
2026-05-07 12:09 45.34076 12.49005 16516 ft 322 kts 132°
2026-05-07 12:10 45.32972 12.51799 16197 ft 327 kts 112°
2026-05-07 12:10 45.32373 12.54928 15896 ft 327 kts 106°
2026-05-07 12:10 45.31868 12.58076 15570 ft 326 kts 105°
2026-05-07 12:10 45.31369 12.61211 15256 ft 324 kts 106°
2026-05-07 12:11 45.30865 12.64320 14953 ft 322 kts 106°
2026-05-07 12:11 45.30353 12.67409 14674 ft 320 kts 106°
2026-05-07 12:11 45.29842 12.70439 14381 ft 318 kts 106°
2026-05-07 12:11 45.29323 12.73492 14088 ft 317 kts 107°
2026-05-07 12:12 45.28806 12.76521 13802 ft 315 kts 106°
2026-05-07 12:12 45.28167 12.79475 13467 ft 309 kts 121°
2026-05-07 12:12 45.27032 12.82004 13232 ft 301 kts 128°
2026-05-07 12:12 45.25847 12.84461 12902 ft 300 kts 128°
2026-05-07 12:13 45.24669 12.86898 12598 ft 298 kts 127°
2026-05-07 12:13 45.23500 12.89326 12291 ft 297 kts 127°
2026-05-07 12:13 45.22355 12.91714 11994 ft 296 kts 127°
2026-05-07 12:13 45.21201 12.94128 11690 ft 295 kts 127°
2026-05-07 12:14 45.20054 12.96531 11386 ft 294 kts 127°
2026-05-07 12:14 45.18911 12.98928 11080 ft 293 kts 127°
2026-05-07 12:14 45.17770 13.01321 10772 ft 292 kts 127°
2026-05-07 12:14 45.16633 13.03706 10449 ft 293 kts 127°
2026-05-07 12:15 45.15490 13.06101 10167 ft 291 kts 127°
2026-05-07 12:15 45.14368 13.08455 9968 ft 286 kts 127°
2026-05-07 12:15 45.13252 13.10794 9651 ft 286 kts 127°
2026-05-07 12:15 45.12138 13.13124 9336 ft 285 kts 127°
2026-05-07 12:16 45.11027 13.15447 9024 ft 284 kts 127°
2026-05-07 12:16 45.09931 13.17738 8697 ft 284 kts 127°
2026-05-07 12:16 45.08824 13.20051 8373 ft 284 kts 126°
2026-05-07 12:16 45.07715 13.22364 8035 ft 284 kts 126°
2026-05-07 12:17 45.06605 13.24678 7690 ft 285 kts 126°
2026-05-07 12:17 45.05493 13.26996 7360 ft 284 kts 126°
2026-05-07 12:17 45.04383 13.29307 7052 ft 283 kts 126°
2026-05-07 12:17 45.03278 13.31605 6751 ft 282 kts 126°
2026-05-07 12:18 45.02179 13.33890 6460 ft 280 kts 126°
2026-05-07 12:18 45.01085 13.36164 6161 ft 279 kts 126°
2026-05-07 12:18 44.99998 13.38420 5871 ft 277 kts 126°
2026-05-07 12:18 44.98919 13.40658 5582 ft 275 kts 126°
2026-05-07 12:19 44.97846 13.42882 5303 ft 273 kts 126°
2026-05-07 12:19 44.96779 13.45091 5021 ft 271 kts 127°
2026-05-07 12:19 44.95718 13.47284 4746 ft 269 kts 127°
2026-05-07 12:19 44.94689 13.49414 4628 ft 262 kts 127°
2026-05-07 12:20 44.93671 13.51517 4495 ft 256 kts 127°
2026-05-07 12:20 44.92680 13.53568 4365 ft 249 kts 127°
2026-05-07 12:20 44.91717 13.55554 4274 ft 241 kts 127°
2026-05-07 12:20 44.90781 13.57485 4167 ft 234 kts 127°
2026-05-07 12:21 44.89875 13.59353 3985 ft 227 kts 127°
2026-05-07 12:21 44.89007 13.61174 3766 ft 221 kts 122°
2026-05-07 12:21 44.88669 13.63238 3544 ft 218 kts 89°
2026-05-07 12:21 44.88759 13.65299 3383 ft 211 kts 89°
2026-05-07 12:22 44.88827 13.67358 3136 ft 208 kts 89°
2026-05-07 12:22 44.88877 13.69347 3015 ft 198 kts 90°
2026-05-07 12:22 44.88919 13.71295 2830 ft 200 kts 90°
2026-05-07 12:22 44.88958 13.73242 2564 ft 198 kts 90°
2026-05-07 12:23 44.88997 13.75172 2327 ft 195 kts 90°
2026-05-07 12:23 44.89035 13.77058 2051 ft 187 kts 90°
2026-05-07 12:23 44.89071 13.78825 1811 ft 175 kts 90°
2026-05-07 12:23 44.89105 13.80459 1614 ft 160 kts 90°
2026-05-07 12:24 44.89136 13.81991 1406 ft 155 kts 90°
2026-05-07 12:24 44.89167 13.83513 1179 ft 155 kts 91°
2026-05-07 12:24 44.89199 13.85014 976 ft 152 kts 90°
2026-05-07 12:24 44.89230 13.86499 774 ft 152 kts 91°
2026-05-07 12:25 44.89260 13.87994 570 ft 154 kts 90°
2026-05-07 12:25 44.89295 13.89487 383 ft 154 kts 91°
2026-05-07 12:25 44.89330 13.90985 226 ft 149 kts 91°
2026-05-07 12:25 44.89355 13.92217 221 ft 95 kts 88°
2026-05-07 12:26 44.89367 13.92780 221 ft 16 kts 88°
2026-05-07 12:26 44.89413 13.92868 222 ft 13 kts
2026-05-07 12:26 44.89505 13.92866 221 ft 13 kts 355°
2026-05-07 12:26 44.89582 13.92820 223 ft 13 kts 291°
2026-05-07 12:27 44.89586 13.92738 223 ft 13 kts 268°
2026-05-07 12:27 44.89583 13.92615 222 ft 12 kts 268°
2026-05-07 12:27 44.89582 13.92495 225 ft 12 kts 282°
2026-05-07 12:27 44.89656 13.92459 225 ft 12 kts 359°
2026-05-07 12:28 44.89720 13.92457 225 ft 7 kts 357°
2026-05-07 12:28 44.89770 13.92453 226 ft 6 kts 352°
2026-05-07 12:28 44.89795 13.92405 225 ft 4 kts 309°
2026-05-07 12:28 44.89815 13.92403 225 ft 0 kts 19°
2026-05-07 12:29 44.89816 13.92404 225 ft 0 kts 22°
2026-05-07 12:29 44.89818 13.92406 225 ft 0 kts 33°